Location: Newark
(49.9828°N, 3.1606°E)
Time: 14:36:33
(UTC+00:00)

Envisat - Pass Details

Date: 02 February 2020
Orbit: 764 x 766 km, 98.1° (Epoch: 28 February)

Event Time Altitude Azimuth Distance (km) Brightness Sun altitude
Rises 17:31:40 0° 168° (SSE) 3,221 6.3 -8.2°
Reaches altitude 10° 17:33:58 10° 170° (S) 2,299 5.6 -8.6°
Maximum altitude 17:39:03 78° 256° (WSW) 790 3.2 -9.4°
Drops below altitude 10° 17:44:10 10° 343° (NNW) 2,316 5.5 -10.2°
Sets 17:46:29 0° 345° (NNW) 3,246 6.3 -10.5°
